Andover, NJ

5:08 AM EST on November 25, 2017 (GMT -0500)
Andover

Weather History for K12N - October, 2012

Change the Weather History Date:

Wednesday, October 3, 2012

  Actual Average (KFWN) Record (KFWN)
Temperature  
Mean Temperature 65 °F -  
Max Temperature 72 °F 67 °F 82 °F (1968)
Min Temperature 59 °F 43 °F 29 °F (1966)
Growing Degree Days 15 (Base 50)    
Moisture  
Dew Point 63 °F    
Average Humidity 94    
Maximum Humidity 100    
Minimum Humidity 90    
Precipitation  
Precipitation 0.03 in - - ()
Sea Level Pressure  
Sea Level Pressure 30.06 in    
Wind  
Wind Speed 1 mph (NE)    
Max Wind Speed 4 mph    
Max Gust Speed -    
Averages and records for this station are not official NWS values.
T = Trace of Precipitation, MM = Missing Value Source: NWS Daily Summary

Daily Weather History Graph

Daily Weather History Graph

Search for Another Location

Airport or City:

Trip Planner

Search our weather history database for the weather conditions in past years. The results will help you decide how hot, cold, wet, or windy it might be!

Date:

Astronomy

Oct. 03, 2012 Rise Set
Actual Time 6:58 AM EDT 6:36 PM EDT
Civil Twilight 6:30 AM EDT 7:04 PM EDT
Nautical Twilight 5:58 AM EDT 7:36 PM EDT
Astronomical Twilight 5:26 AM EDT 8:08 PM EDT
Moon 8:25 PM EDT (10/3) 10:20 AM EDT (10/3)
Length of Visible Light 12h 33m
Length of Day
11h 38m
Waning Gibbous, 89% of the Moon is Illuminated
Oct 3
Waning Gibbous
Oct 8
Last Quarter
Oct 15
New
Oct 21
First Quarter
Oct 29
Full

Hourly Weather History & Observations

Time (EDT) Temp. Dew Point Humidity Pressure Visibility Wind Dir Wind Speed Gust Speed Precip Events Conditions
12:54 AM 59.0 °F 57.9 °F 96% 30.01 in - NNE 3.5 mph - N/A   Unknown
1:54 AM 59.0 °F 57.9 °F 96% 30.01 in - Calm Calm - N/A   Unknown
2:54 AM 59.0 °F 57.9 °F 96% 30.01 in - NE 3.5 mph - N/A   Unknown
3:54 AM 59.0 °F 59.0 °F 100% 30.01 in - Variable 3.5 mph - N/A   Unknown
4:54 AM 59.0 °F 59.0 °F 100% 30.02 in - Calm Calm - N/A   Unknown
5:54 AM 59.0 °F 59.0 °F 100% 30.04 in - Calm Calm - N/A   Unknown
6:54 AM 60.1 °F 59.0 °F 96% 30.05 in - Calm Calm - N/A   Unknown
7:54 AM 60.1 °F 59.0 °F 96% 30.06 in - Calm Calm - N/A   Unknown
8:54 AM 61.0 °F 59.0 °F 93% 30.06 in - Calm Calm - 0.02 in   Unknown
9:54 AM 62.1 °F 60.1 °F 93% 30.07 in - Calm Calm - 0.01 in   Unknown
10:54 AM 63.0 °F 61.0 °F 93% 30.08 in - Calm Calm - N/A   Unknown
11:54 AM 64.9 °F 62.1 °F 90% 30.08 in - Calm Calm - N/A   Unknown
12:54 PM 69.1 °F 66.0 °F 90% 30.06 in - Calm Calm - N/A   Unknown
1:54 PM 71.1 °F 68.0 °F 90% 30.05 in - Calm Calm - N/A   Unknown
2:54 PM 70.0 °F 68.0 °F 93% 30.06 in - Calm Calm - N/A   Unknown
3:54 PM 70.0 °F 68.0 °F 93% 30.06 in - Variable 3.5 mph - N/A   Unknown
4:54 PM 71.1 °F 68.0 °F 90% 30.06 in - Calm Calm - N/A   Unknown
5:54 PM 70.0 °F 68.0 °F 93% 30.07 in - Calm Calm - N/A   Unknown
6:54 PM 68.0 °F 66.9 °F 96% 30.08 in - Calm Calm - N/A   Unknown
7:54 PM 68.0 °F 66.9 °F 96% 30.09 in - Calm Calm - N/A   Unknown
8:54 PM 68.0 °F 66.0 °F 93% 30.10 in - Calm Calm - N/A   Unknown
9:54 PM 68.0 °F 66.0 °F 93% 30.12 in - Calm Calm - N/A   Unknown
10:54 PM 68.0 °F 66.0 °F 93% 30.12 in - Calm Calm - N/A   Unknown
11:54 PM 68.0 °F 66.0 °F 93% 30.13 in - Calm Calm - N/A   Unknown